Change the Weather History Date:

Friday, March 15, 2013

  Actual Average Record
Temperature  
Mean Temperature 56 °F 38 °F  
Max Temperature 74 °F 51 °F 74 °F (2013)
Min Temperature 37 °F 24 °F 3 °F (2002)
Degree Days  
Heating Degree Days 9 27  
Month to date heating degree days 386 437  
Since 1 July heating degree days 4999 5281  
Cooling Degree Days 0 0  
Month to date cooling degree days 0 0  
Year to date cooling degree days 0 0  
Growing Degree Days 5 (Base 50)    
Moisture  
Dew Point 24 °F    
Average Humidity 40    
Maximum Humidity 70    
Minimum Humidity 10    
Precipitation  
Precipitation T in 0.03 in 0.05 in (2004)
Month to date precipitation 0.10 0.25  
Year to date precipitation 0.49 0.85  
Sea Level Pressure  
Sea Level Pressure 29.82 in    
Wind  
Wind Speed 11 mph (NNW)    
Max Wind Speed 29 mph    
Max Gust Speed 38 mph    
Visibility 10 miles    
Events      
T = Trace of Precipitation, MM = Missing Value Source: NWS Daily Summary

Daily Weather History Graph

Daily Weather History Graph

Search for Another Location

Airport or City:

Trip Planner

Search our weather history database for the weather conditions in past years. The results will help you decide how hot, cold, wet, or windy it might be!

Date:

Astronomy

Mar. 15, 2013 Rise Set
Actual Time 7:07 AM MDT 7:03 PM MDT
Civil Twilight 6:40 AM MDT 7:31 PM MDT
Nautical Twilight 6:07 AM MDT 8:03 PM MDT
Astronomical Twilight 5:34 AM MDT 8:36 PM MDT
Moon 8:55 AM MDT (3/15) 11:24 PM MDT (3/15)
Length of Visible Light 12h 51m
Length of Day
11h 55m
Waxing Crescent, 16% of the Moon is Illuminated
Mar 15
Waxing Crescent
Mar 19
First Quarter
Mar 27
Full
Apr 2
Last Quarter
Apr 10
New

Hourly Weather History & Observations

Time (MDT) Temp. Windchill Dew Point Humidity Pressure Visibility Wind Dir Wind Speed Gust Speed Precip Events Conditions
12:53 AM 46.9 °F - 28.0 °F 48% 29.94 in 10.0 mi North - - N/A   Clear
1:53 AM 48.0 °F - 27.0 °F 44% 29.92 in 10.0 mi Calm Calm - N/A   Clear
2:53 AM 44.1 °F - 27.0 °F 51% 29.89 in 10.0 mi Calm Calm - N/A   Clear
3:53 AM 44.1 °F - 27.0 °F 51% 29.86 in 10.0 mi Calm Calm - N/A   Clear
4:53 AM 37.9 °F - 28.0 °F 68% 29.85 in 10.0 mi Calm Calm - N/A   Clear
5:53 AM 39.9 °F 37.8 °F 28.0 °F 63% 29.84 in 10.0 mi South 3.5 mph - N/A   Clear
6:53 AM 39.9 °F - 28.0 °F 63% 29.85 in 10.0 mi Calm Calm - N/A   Clear
7:53 AM 46.9 °F - 27.0 °F 46% 29.83 in 10.0 mi SSW 4.6 mph - N/A   Clear
8:53 AM 48.0 °F - 30.0 °F 50% 29.85 in 10.0 mi Calm Calm - N/A   Clear
9:53 AM 55.0 °F - 28.0 °F 35% 29.84 in 10.0 mi Calm Calm - N/A   Clear
10:53 AM 66.0 °F - 25.0 °F 21% 29.81 in 10.0 mi SW 10.4 mph - N/A   Clear
11:53 AM 70.0 °F - 18.0 °F 14% 29.79 in 10.0 mi NW 23.0 mph 32.2 mph N/A   Clear
12:53 PM 70.0 °F - 18.0 °F 14% 29.78 in 10.0 mi NW 19.6 mph 31.1 mph N/A   Clear
1:53 PM 73.0 °F - 14.0 °F 11% 29.74 in 10.0 mi WNW 23.0 mph 35.7 mph N/A   Clear
2:53 PM 73.0 °F - 16.0 °F 11% 29.73 in 10.0 mi WNW 16.1 mph 28.8 mph N/A   Clear
3:53 PM 71.1 °F - 17.1 °F 13% 29.73 in 10.0 mi NNW 20.7 mph 31.1 mph N/A   Clear
4:53 PM 72.0 °F - 19.0 °F 13% 29.74 in 10.0 mi NW 18.4 mph 32.2 mph N/A   Clear
5:53 PM 69.1 °F - 19.0 °F 15% 29.73 in 10.0 mi NW 12.7 mph - N/A   Clear
6:35 PM 64.4 °F - 21.2 °F 19% 29.81 in 10.0 mi NE 12.7 mph - N/A   Clear
6:53 PM 61.0 °F - 21.9 °F 22% 29.76 in 10.0 mi NE 10.4 mph - N/A   Scattered Clouds
7:53 PM 64.0 °F - 24.1 °F 22% 29.77 in 10.0 mi NNW 16.1 mph 31.1 mph N/A   Overcast
8:53 PM 60.1 °F - 21.9 °F 23% 29.81 in 10.0 mi NNE 17.3 mph - N/A   Overcast
9:53 PM 57.0 °F - 25.0 °F 29% 29.82 in 10.0 mi NE 10.4 mph - N/A   Overcast
10:53 PM 53.1 °F - 27.0 °F 37% 29.83 in 10.0 mi ENE 12.7 mph 21.9 mph N/A   Overcast
11:53 PM 50.0 °F - 27.0 °F 41% 29.86 in 10.0 mi NE 19.6 mph 28.8 mph N/A   Overcast